User: anonymous   Login
Location: Unspecified
(0.0000°N, 0.0000°E)
Time: 06:38:46
(UTC+00:00)
Language:

SBIRS GEO 1 (USA 230) - Orbit

View from above orbital plane
View from above orbital plane
View from above satellite
View from above satellite

Ground track
Ground track

The orbit data is extracted from the following two-line orbital elements,

1 37481U 11019A   17164.90571962 0.00000000  00000-0  00000-0 0    06
2 37481   3.6249 322.4975 0002000  61.7972 298.1784  1.00270000    04
Epoch (UTC): 13 June 2017 21:44:14
Eccentricity: 0.0002000
inclination: 3.6249°
perigee height: 35778 km
apogee height: 35795 km
right ascension of ascending node: 322.4975°
argument of perigee: 61.7972°
revolutions per day: 1.00270000
mean anomaly at epoch: 298.1784°
orbit number at epoch: 0

The dashed part of the orbit path shows where the satellite is in the earth's shadow,  

DLR